This is the latest recevied weather packets stored in our database for station/object KC7UNY-13. If no packets are shown the sender has not sent any weather packets the latest 10 day(s).
| Time | Temp. | Humidity | Pressure | Rain* | Wind** | Luminosity | Snow |
|---|---|---|---|---|---|---|---|
| 1777697743 | 23.33° C | 33% | 1010.3 hPa | 0 mm | - | 0 W/m² | - |
| 1777697440 | 23.33° C | 33% | 1010.1 hPa | 0 mm | - | 0 W/m² | - |
| 1777697136 | 23.33° C | 33% | 1010.2 hPa | 0 mm | - | 0 W/m² | - |
| 1777696833 | 23.89° C | 33% | 1010.2 hPa | 0 mm | - | 0 W/m² | - |
| 1777696531 | 23.89° C | 32% | 1010.3 hPa | 0 mm | - | 0 W/m² | - |
| 1777696227 | 23.89° C | 32% | 1010.1 hPa | 0 mm | - | 0 W/m² | - |
| 1777695922 | 23.89° C | 32% | 1010.1 hPa | 0 mm | - | 0 W/m² | - |
| 1777695620 | 23.89° C | 34% | 1009.8 hPa | 0 mm | - | 0 W/m² | - |
| 1777695317 | 23.33° C | 34% | 1010 hPa | 0 mm | - | 0 W/m² | - |
| 1777695014 | 23.33° C | 34% | 1009.9 hPa | 0 mm | - | 0 W/m² | - |
| 1777694710 | 23.33° C | 34% | 1009.9 hPa | 0 mm | - | 0 W/m² | - |
| 1777694408 | 23.33° C | 33% | 1009.7 hPa | 0 mm | - | 0 W/m² | - |
| 1777694103 | 23.33° C | 32% | 1009.6 hPa | 0 mm | - | 0 W/m² | - |
| 1777693801 | 23.89° C | 31% | 1009.8 hPa | 0 mm | - | 0 W/m² | - |
| 1777693499 | 23.89° C | 31% | 1009.8 hPa | 0 mm | - | 0 W/m² | - |
| 1777693198 | 24.44° C | 31% | 1009.8 hPa | 0 mm | - | 0 W/m² | - |
| 1777692895 | 25° C | 32% | 1009.5 hPa | 0 mm | - | 0 W/m² | - |
| 1777692591 | 25.56° C | 29% | 1009.5 hPa | 0 mm | - | 0 W/m² | - |
| 1777692288 | 25.56° C | 30% | 1009.5 hPa | 0 mm | - | 0 W/m² | - |
| 1777691985 | 25.56° C | 29% | 1009.6 hPa | 0 mm | - | 0 W/m² | - |
| 1777691683 | 25.56° C | 29% | 1009.3 hPa | 0 mm | - | 0 W/m² | - |
| 1777691381 | 26.11° C | 30% | 1009.4 hPa | 0 mm | - | 0 W/m² | - |
| 1777691079 | 26.67° C | 30% | 1009.2 hPa | 0 mm | - | 0 W/m² | - |
| 1777690777 | 27.22° C | 26% | 1009.2 hPa | 0 mm | - | 0 W/m² | - |
| 1777690474 | 27.78° C | 25% | 1009.3 hPa | 0 mm | - | 0 W/m² | - |
* Rain latest hour (hover to see other rain measurements)
** Current wind speed in m/s (hover to see current wind gust speed)